Time,TemperatureF,DewpointF,PressureIn,WindDirection,WindDirectionDegrees,WindSpeedMPH,WindSpeedGustMPH,Humidity,HourlyPrecipIn,Conditions,Clouds,dailyrainin,SoftwareType,DateUTC
2013-01-11 00:09:00,37.9,37.4,30.06,East,96,0.0,0.0,98,0.00,CLR,,0.00,WeatherDisplay:10.37,2013-01-11 00:09:00,
2013-01-11 00:24:00,37.9,37.4,30.06,SE,135,0.0,0.0,98,0.00,CLR,,0.00,WeatherDisplay:10.37,2013-01-11 00:24:00,
2013-01-11 00:54:00,37.9,37.4,30.06,East,90,0.0,0.0,98,0.00,CLR,,0.00,WeatherDisplay:10.37,2013-01-11 00:54:00,
2013-01-11 01:09:00,38.1,37.6,30.06,NE,54,0.0,0.0,98,0.00,CLR,,0.00,WeatherDisplay:10.37,2013-01-11 01:09:00,
2013-01-11 01:24:00,38.1,37.6,30.06,NE,45,0.0,0.0,98,0.00,CLR,,0.00,WeatherDisplay:10.37,2013-01-11 01:24:00,
2013-01-11 01:54:00,38.1,37.6,30.06,NE,45,0.0,0.0,98,0.00,CLR,,0.00,WeatherDisplay:10.37,2013-01-11 01:54:00,
2013-01-11 02:09:00,38.1,37.6,30.06,NE,56,0.0,0.0,98,0.00,CLR,,0.00,WeatherDisplay:10.37,2013-01-11 02:09:00,
2013-01-11 02:24:00,38.3,37.8,30.06,NE,45,0.0,0.0,98,0.00,CLR,,0.00,WeatherDisplay:10.37,2013-01-11 02:24:00,
2013-01-11 02:39:00,38.3,37.7,30.06,NE,45,0.0,1.0,98,0.00,CLR,,0.00,WeatherDisplay:10.37,2013-01-11 02:39:00,
2013-01-11 02:54:00,38.3,37.8,30.06,NE,45,0.0,1.0,98,0.00,CLR,,0.00,WeatherDisplay:10.37,2013-01-11 02:54:00,
2013-01-11 03:09:00,38.3,37.8,30.06,NE,51,0.0,3.0,98,0.00,CLR,,0.00,WeatherDisplay:10.37,2013-01-11 03:09:00,
2013-01-11 03:24:00,38.3,37.8,30.06,NE,45,0.0,0.0,98,0.00,CLR,,0.00,WeatherDisplay:10.37,2013-01-11 03:24:00,
2013-01-11 03:39:00,38.3,37.8,30.03,NE,45,1.0,2.0,98,0.00,CLR,,0.00,WeatherDisplay:10.37,2013-01-11 03:39:00,
2013-01-11 03:54:00,38.3,37.8,30.06,NE,45,0.0,1.0,98,0.00,CLR,,0.00,WeatherDisplay:10.37,2013-01-11 03:54:00,
2013-01-11 04:09:00,38.3,37.8,30.03,NE,45,0.0,0.0,98,0.00,CLR,,0.00,WeatherDisplay:10.37,2013-01-11 04:09:00,
2013-01-11 04:24:00,38.3,37.8,30.06,NE,45,0.0,0.0,98,0.00,CLR,,0.00,WeatherDisplay:10.37,2013-01-11 04:24:00,
2013-01-11 04:39:00,38.3,37.8,30.06,SE,135,0.0,0.0,98,0.00,CLR,,0.00,WeatherDisplay:10.37,2013-01-11 04:39:00,
2013-01-11 04:54:00,38.5,38.0,30.03,East,81,0.0,1.0,98,0.00,CLR,,0.00,WeatherDisplay:10.37,2013-01-11 04:54:00,
2013-01-11 05:09:00,38.5,38.0,30.06,ENE,75,0.0,0.0,98,0.00,CLR,,0.00,WeatherDisplay:10.37,2013-01-11 05:09:00,
2013-01-11 05:24:00,38.5,38.0,30.03,East,84,0.0,0.0,98,0.00,CLR,,0.00,WeatherDisplay:10.37,2013-01-11 05:24:00,
2013-01-11 05:39:00,38.5,38.0,30.03,NE,45,0.0,0.0,98,0.00,CLR,,0.00,WeatherDisplay:10.37,2013-01-11 05:39:00,
2013-01-11 05:54:00,38.5,38.0,30.03,NE,43,0.0,0.0,98,0.00,CLR,,0.00,WeatherDisplay:10.37,2013-01-11 05:54:00,
2013-01-11 06:09:00,38.5,38.0,30.03,ENE,59,0.0,0.0,98,0.00,CLR,,0.00,WeatherDisplay:10.37,2013-01-11 06:09:00,
2013-01-11 06:24:00,38.5,38.0,30.03,NE,49,0.0,2.0,98,0.00,CLR,,0.00,WeatherDisplay:10.37,2013-01-11 06:24:00,
2013-01-11 06:39:00,38.5,38.0,30.06,ENE,75,0.0,2.0,98,0.00,CLR,,0.00,WeatherDisplay:10.37,2013-01-11 06:39:00,
2013-01-11 06:54:00,38.5,38.0,30.06,ENE,75,0.0,3.0,98,0.00,CLR,,0.00,WeatherDisplay:10.37,2013-01-11 06:54:00,
2013-01-11 07:09:00,38.7,38.1,30.06,NE,45,2.0,3.0,98,0.00,CLR,,0.00,WeatherDisplay:10.37,2013-01-11 07:09:00,
2013-01-11 07:24:00,38.7,38.1,30.06,NE,45,0.0,3.0,98,0.00,CLR,,0.00,WeatherDisplay:10.37,2013-01-11 07:24:00,
2013-01-11 07:39:00,38.7,38.1,30.06,NNE,31,1.0,2.0,98,0.00,CLR,,0.00,WeatherDisplay:10.37,2013-01-11 07:39:00,
2013-01-11 07:54:00,38.8,38.3,30.06,NE,51,3.0,4.0,98,0.00,CLR,,0.00,WeatherDisplay:10.37,2013-01-11 07:54:00,
2013-01-11 08:09:00,38.8,38.3,30.06,East,88,5.0,5.0,98,0.00,CLR,,0.00,WeatherDisplay:10.37,2013-01-11 08:09:00,
2013-01-11 08:24:00,38.8,38.3,30.06,NE,45,2.0,5.0,98,0.00,CLR,,0.00,WeatherDisplay:10.37,2013-01-11 08:24:00,
2013-01-11 08:39:00,38.8,38.3,30.06,NNE,30,3.0,3.0,98,0.00,CLR,,0.00,WeatherDisplay:10.37,2013-01-11 08:39:00,
2013-01-11 08:54:00,38.8,38.3,30.09,NNE,25,0.0,3.0,98,0.00,CLR,,0.00,WeatherDisplay:10.37,2013-01-11 08:54:00,
2013-01-11 09:09:00,39.0,38.5,30.09,NNE,31,0.0,1.0,98,0.00,CLR,,0.00,WeatherDisplay:10.37,2013-01-11 09:09:00,
2013-01-11 09:24:00,39.0,38.5,30.06,NE,48,1.0,1.0,98,0.00,CLR,,0.00,WeatherDisplay:10.37,2013-01-11 09:24:00,
2013-01-11 09:39:00,39.0,38.5,30.06,ENE,71,2.0,3.0,98,0.00,CLR,,0.00,WeatherDisplay:10.37,2013-01-11 09:39:00,
2013-01-11 09:54:00,39.2,38.7,30.06,NE,45,0.0,3.0,98,0.00,CLR,,0.00,WeatherDisplay:10.37,2013-01-11 09:54:00,
2013-01-11 10:09:00,39.2,38.7,30.06,NE,45,0.0,0.0,98,0.00,CLR,,0.00,WeatherDisplay:10.37,2013-01-11 10:09:00,
2013-01-11 10:24:00,39.4,38.9,30.06,NE,50,0.0,1.0,98,0.00,CLR,,0.00,WeatherDisplay:10.37,2013-01-11 10:24:00,
2013-01-11 10:39:00,39.4,38.9,30.06,NE,40,0.0,2.0,98,0.00,CLR,,0.00,WeatherDisplay:10.37,2013-01-11 10:39:00,
2013-01-11 10:54:00,39.6,39.0,30.06,NNE,22,0.0,1.0,98,0.00,CLR,,0.00,WeatherDisplay:10.37,2013-01-11 10:54:00,
2013-01-11 11:09:00,39.7,39.2,30.06,NE,45,0.0,0.0,98,0.00,CLR,,0.00,WeatherDisplay:10.37,2013-01-11 11:09:00,
2013-01-11 11:24:00,39.9,39.4,30.06,NE,45,0.0,0.0,98,0.00,CLR,,0.00,WeatherDisplay:10.37,2013-01-11 11:24:00,
2013-01-11 11:39:00,40.1,39.6,30.06,ENE,68,0.0,0.0,98,0.00,CLR,,0.00,WeatherDisplay:10.37,2013-01-11 11:39:00,
2013-01-11 11:54:00,40.3,39.8,30.06,NE,45,0.0,1.0,98,0.00,CLR,,0.00,WeatherDisplay:10.37,2013-01-11 11:54:00,
2013-01-11 12:09:00,40.3,39.8,30.06,NE,49,0.0,2.0,98,0.00,CLR,,0.00,WeatherDisplay:10.37,2013-01-11 12:09:00,
2013-01-11 12:24:00,40.6,40.1,30.06,NE,52,1.0,3.0,98,0.00,CLR,,0.00,WeatherDisplay:10.37,2013-01-11 12:24:00,
2013-01-11 12:39:00,40.6,40.1,30.06,NE,48,0.0,3.0,98,0.00,CLR,,0.00,WeatherDisplay:10.37,2013-01-11 12:39:00,
2013-01-11 12:54:00,40.6,40.1,30.06,NE,49,1.0,3.0,98,0.00,CLR,,0.00,WeatherDisplay:10.37,2013-01-11 12:54:00,
2013-01-11 13:09:00,40.6,40.1,30.06,ENE,64,0.0,2.0,98,0.00,CLR,,0.00,WeatherDisplay:10.37,2013-01-11 13:09:00,
2013-01-11 13:24:00,40.6,40.1,30.06,East,85,2.0,4.0,98,0.00,CLR,,0.00,WeatherDisplay:10.37,2013-01-11 13:24:00,
2013-01-11 13:39:00,40.6,40.1,30.06,NE,45,3.0,5.0,98,0.00,CLR,,0.00,WeatherDisplay:10.37,2013-01-11 13:39:00,
2013-01-11 13:54:00,40.8,40.3,30.06,NE,41,0.0,5.0,98,0.00,CLR,,0.00,WeatherDisplay:10.37,2013-01-11 13:54:00,
2013-01-11 14:09:00,41.0,40.5,30.03,NE,34,0.0,4.0,98,0.00,CLR,,0.00,WeatherDisplay:10.37,2013-01-11 14:09:00,
2013-01-11 14:24:00,41.0,40.5,30.03,NNE,33,0.0,3.0,98,0.00,CLR,,0.00,WeatherDisplay:10.37,2013-01-11 14:24:00,
2013-01-11 14:39:00,41.0,40.5,30.03,NE,37,0.0,1.0,98,0.00,CLR,,0.00,WeatherDisplay:10.37,2013-01-11 14:39:00,
2013-01-11 14:54:00,41.0,40.5,30.03,NE,43,0.0,3.0,98,0.00,CLR,,0.00,WeatherDisplay:10.37,2013-01-11 14:54:00,
2013-01-11 15:09:00,40.8,40.3,30.03,NE,56,0.0,3.0,98,0.00,CLR,,0.00,WeatherDisplay:10.37,2013-01-11 15:09:00,
2013-01-11 15:24:00,40.6,40.1,30.03,ENE,77,2.0,2.0,98,0.00,CLR,,0.00,WeatherDisplay:10.37,2013-01-11 15:24:00,
2013-01-11 15:39:00,40.5,39.9,30.03,NE,39,0.0,2.0,98,0.00,CLR,,0.00,WeatherDisplay:10.37,2013-01-11 15:39:00,
2013-01-11 15:54:00,40.5,39.9,30.03,NNE,22,0.0,0.0,98,0.00,CLR,,0.00,WeatherDisplay:10.37,2013-01-11 15:54:00,
2013-01-11 16:09:00,40.5,39.9,30.03,NE,45,0.0,3.0,98,0.00,CLR,,0.00,WeatherDisplay:10.37,2013-01-11 16:09:00,
2013-01-11 16:24:00,40.3,39.8,30.03,NE,52,0.0,2.0,98,0.00,CLR,,0.00,WeatherDisplay:10.37,2013-01-11 16:24:00,
2013-01-11 16:39:00,39.9,39.4,30.03,NE,54,0.0,2.0,98,0.00,CLR,,0.00,WeatherDisplay:10.37,2013-01-11 16:39:00,
2013-01-11 16:54:00,39.9,39.4,30.03,ESE,102,1.0,4.0,98,0.00,CLR,,0.00,WeatherDisplay:10.37,2013-01-11 16:54:00,
2013-01-11 17:09:00,40.1,39.6,30.03,NE,35,3.0,5.0,98,0.00,CLR,,0.00,WeatherDisplay:10.37,2013-01-11 17:09:00,
2013-01-11 17:24:00,39.9,39.4,30.03,ENE,67,3.0,6.0,98,0.00,CLR,,0.00,WeatherDisplay:10.37,2013-01-11 17:24:00,
2013-01-11 17:39:00,39.9,39.4,30.03,NE,45,5.0,5.0,98,0.00,CLR,,0.00,WeatherDisplay:10.37,2013-01-11 17:39:00,
2013-01-11 17:54:00,39.7,39.2,30.03,NE,55,3.0,6.0,98,0.00,CLR,,0.00,WeatherDisplay:10.37,2013-01-11 17:54:00,
2013-01-11 18:09:00,39.7,39.2,30.03,ENE,59,3.0,5.0,98,0.00,CLR,,0.00,WeatherDisplay:10.37,2013-01-11 18:09:00,
2013-01-11 18:24:00,39.6,39.0,30.03,East,90,3.0,5.0,98,0.00,CLR,,0.00,WeatherDisplay:10.37,2013-01-11 18:24:00,
2013-01-11 18:39:00,39.6,39.0,30.03,East,83,2.0,6.0,98,0.00,CLR,,0.00,WeatherDisplay:10.37,2013-01-11 18:39:00,
2013-01-11 18:54:00,39.4,38.9,30.03,ENE,63,3.0,5.0,98,0.00,CLR,,0.00,WeatherDisplay:10.37,2013-01-11 18:54:00,
2013-01-11 19:09:00,39.4,38.9,30.03,ENE,76,5.0,5.0,98,0.00,CLR,,0.00,WeatherDisplay:10.37,2013-01-11 19:09:00,
2013-01-11 19:24:00,39.4,38.9,30.03,NE,51,6.0,9.0,98,0.00,CLR,,0.00,WeatherDisplay:10.37,2013-01-11 19:24:00,
2013-01-11 19:39:00,39.4,38.9,30.03,ENE,75,6.0,7.0,98,0.00,CLR,,0.00,WeatherDisplay:10.37,2013-01-11 19:39:00,
2013-01-11 19:54:00,39.4,38.9,30.03,ENE,59,7.0,8.0,98,0.00,CLR,,0.00,WeatherDisplay:10.37,2013-01-11 19:54:00,
2013-01-11 20:09:00,39.4,38.9,30.03,East,90,3.0,8.0,98,0.00,CLR,,0.00,WeatherDisplay:10.37,2013-01-11 20:09:00,
2013-01-11 20:24:00,39.2,38.7,30.03,NE,45,2.0,6.0,98,0.00,CLR,,0.00,WeatherDisplay:10.37,2013-01-11 20:24:00,
2013-01-11 20:39:00,39.2,38.7,30.03,NE,52,7.0,7.0,98,0.00,CLR,,0.00,WeatherDisplay:10.37,2013-01-11 20:39:00,
2013-01-11 20:54:00,39.0,38.5,30.03,East,79,5.0,7.0,98,0.00,CLR,,0.00,WeatherDisplay:10.37,2013-01-11 20:54:00,
2013-01-11 21:09:00,39.0,38.5,30.03,ENE,64,3.0,6.0,98,0.00,CLR,,0.00,WeatherDisplay:10.37,2013-01-11 21:09:00,
2013-01-11 21:24:00,38.9,38.4,30.03,East,90,5.0,5.0,98,0.00,CLR,,0.00,WeatherDisplay:10.37,2013-01-11 21:24:00,
2013-01-11 21:39:00,38.8,38.3,30.03,NE,39,8.0,10.0,98,0.00,CLR,,0.00,WeatherDisplay:10.37,2013-01-11 21:39:00,
2013-01-11 21:54:00,38.8,38.3,30.03,ENE,58,5.0,7.0,98,0.00,CLR,,0.00,WeatherDisplay:10.37,2013-01-11 21:54:00,
2013-01-11 22:09:00,38.7,38.1,30.03,NE,41,3.0,6.0,98,0.00,CLR,,0.00,WeatherDisplay:10.37,2013-01-11 22:09:00,
2013-01-11 22:24:00,38.5,38.0,30.03,ENE,70,5.0,6.0,98,0.00,CLR,,0.00,WeatherDisplay:10.37,2013-01-11 22:24:00,
2013-01-11 22:39:00,38.3,37.8,30.00,NNE,31,7.0,7.0,98,0.00,CLR,,0.00,WeatherDisplay:10.37,2013-01-11 22:39:00,
2013-01-11 22:54:00,38.3,37.8,30.00,NNE,29,6.0,7.0,98,0.00,CLR,,0.00,WeatherDisplay:10.37,2013-01-11 22:54:00,
2013-01-11 23:09:00,38.1,37.6,30.03,ENE,63,3.0,8.0,98,0.00,CLR,,0.00,WeatherDisplay:10.37,2013-01-11 23:09:00,
2013-01-11 23:24:00,38.1,37.6,30.00,ENE,58,0.0,8.0,98,0.00,CLR,,0.00,WeatherDisplay:10.37,2013-01-11 23:24:00,
2013-01-11 23:39:00,38.1,37.3,30.00,NE,55,5.0,6.0,97,0.00,CLR,,0.00,WeatherDisplay:10.37,2013-01-11 23:39:00,
2013-01-11 23:54:00,37.9,37.2,30.00,ENE,69,2.0,6.0,97,0.00,CLR,,0.00,WeatherDisplay:10.37,2013-01-11 23:54:00,